• In Lithuania
  • List of Countries
  • For 7 days
  • Water Temperature
  • Satellite Maps
  • Weather Map
  • Weather Widgets
  • user-avatar
    Login

    Hourly Weather Oran

    Today, 24 October, Wednesday

    Time Temperature Precipitation Wind Pressure Humidity
    00:00 +19°C° 0 mm 4 mps 758 mmHg 69%
    01:00 +19°C° 0 mm 4 mps 758 mmHg 70%
    02:00 +19°C° 0 mm 3 mps 757 mmHg 71%
    03:00 +18°C° 0 mm 3 mps 757 mmHg 72%
    04:00 +18°C° 0 mm 3 mps 757 mmHg 73%
    05:00 +18°C° 0 mm 3 mps 757 mmHg 74%
    06:00 +17°C° 0 mm 3 mps 758 mmHg 75%
    07:00 +18°C° 0 mm 3 mps 758 mmHg 69%
    08:00 +19°C° 0 mm 3 mps 758 mmHg 63%
    09:00 +21°C° 0 mm 2 mps 758 mmHg 57%
    10:00 +21°C° 0 mm 2 mps 758 mmHg 51%
    11:00 +23°C° 0 mm 2 mps 758 mmHg 46%
    12:00 +24°C° 0 mm 2 mps 757 mmHg 41%
    13:00 +24°C° 0 mm 2 mps 757 mmHg 40%
    14:00 +25°C° 0 mm 3 mps 756 mmHg 39%
    15:00 +25°C° 0 mm 3 mps 756 mmHg 38%
    16:00 +24°C° 0 mm 3 mps 756 mmHg 43%
    17:00 +22°C° 0 mm 3 mps 756 mmHg 48%
    18:00 +23°C° 0 mm 2 mps 756 mmHg 53%
    19:00 +21°C° 0 mm 2 mps 756 mmHg 57%
    20:00 +21°C° 0 mm 2 mps 756 mmHg 60%
    21:00 +21°C° 0 mm 1 mps 756 mmHg 64%
    22:00 +21°C° 0 mm 1 mps 756 mmHg 66%
    23:00 +20°C° 0 mm 1 mps 756 mmHg 67%

    Tomorrow, 25 October, Thursday

    Time Temperature Precipitation Wind Pressure Humidity
    00:00 +20°C° 0 mm 1 mps 755 mmHg 68%
    01:00 +19°C° 0 mm 1 mps 755 mmHg 68%
    02:00 +19°C° 0 mm 1 mps 755 mmHg 67%
    03:00 +19°C° 0 mm 1 mps 755 mmHg 66%
    04:00 +19°C° 0 mm 1 mps 755 mmHg 65%
    05:00 +18°C° 0 mm 1 mps 754 mmHg 64%
    06:00 +18°C° 0 mm 1 mps 754 mmHg 62%
    07:00 +20°C° 0 mm 1 mps 755 mmHg 55%
    08:00 +22°C° 0 mm 1 mps 755 mmHg 47%
    09:00 +23°C° 0 mm 1 mps 755 mmHg 39%
    10:00 +24°C° 0 mm 1 mps 755 mmHg 34%
    11:00 +25°C° 0 mm 1 mps 754 mmHg 30%
    12:00 +27°C° 0 mm 1 mps 754 mmHg 26%
    13:00 +27°C° 0 mm 2 mps 753 mmHg 25%
    14:00 +27°C° 0 mm 2 mps 753 mmHg 25%
    15:00 +28°C° 0 mm 3 mps 752 mmHg 25%
    16:00 +27°C° 0 mm 3 mps 752 mmHg 30%
    17:00 +26°C° 0 mm 3 mps 752 mmHg 35%
    18:00 +24°C° 0 mm 3 mps 752 mmHg 40%
    19:00 +24°C° 0 mm 3 mps 752 mmHg 41%
    20:00 +22°C° 0 mm 3 mps 752 mmHg 43%
    21:00 +22°C° 0 mm 3 mps 753 mmHg 44%
    22:00 +22°C° 0 mm 3 mps 752 mmHg 42%
    23:00 +23°C° 0 mm 2 mps 752 mmHg 39%

    Day after tomorrow, 26 October, Friday

    Time Temperature Precipitation Wind Pressure Humidity
    00:00 +21°C° 0 mm 2 mps 752 mmHg 37%
    01:00 +21°C° 0 mm 2 mps 751 mmHg 36%
    02:00 +21°C° 0 mm 2 mps 751 mmHg 35%
    03:00 +20°C° 0 mm 2 mps 751 mmHg 34%
    04:00 +20°C° 0 mm 2 mps 751 mmHg 34%
    05:00 +20°C° 0 mm 2 mps 751 mmHg 34%
    06:00 +20°C° 0 mm 2 mps 751 mmHg 35%
    07:00 +21°C° 0 mm 2 mps 751 mmHg 31%
    08:00 +24°C° 0 mm 2 mps 751 mmHg 27%
    09:00 +26°C° 0 mm 2 mps 751 mmHg 24%
    10:00 +27°C° 0 mm 2 mps 751 mmHg 23%
    11:00 +28°C° 0 mm 2 mps 750 mmHg 21%
    12:00 +30°C° 0 mm 3 mps 750 mmHg 20%
    13:00 +30°C° 0 mm 3 mps 749 mmHg 21%
    14:00 +30°C° 0 mm 3 mps 749 mmHg 21%
    15:00 +30°C° 0 mm 3 mps 749 mmHg 22%
    16:00 +29°C° 0 mm 3 mps 748 mmHg 26%
    17:00 +27°C° 0 mm 2 mps 748 mmHg 30%
    18:00 +26°C° 0 mm 1 mps 748 mmHg 34%
    19:00 +25°C° 0 mm 1 mps 748 mmHg 35%
    20:00 +25°C° 0 mm 1 mps 749 mmHg 37%
    21:00 +24°C° 0 mm 1 mps 749 mmHg 38%
    22:00 +24°C° 0 mm 1 mps 749 mmHg 38%
    23:00 +24°C° 0 mm 2 mps 748 mmHg 37%

    27 October, Saturday

    Time Temperature Precipitation Wind Pressure Humidity
    00:00 +24°C° 0 mm 2 mps 748 mmHg 37%
    01:00 +24°C° 0 mm 2 mps 748 mmHg 38%
    02:00 +23°C° 0 mm 2 mps 747 mmHg 38%
    03:00 +23°C° 0 mm 2 mps 747 mmHg 39%
    04:00 +23°C° 0 mm 2 mps 747 mmHg 43%
    05:00 +21°C° 0 mm 3 mps 747 mmHg 48%
    06:00 +21°C° 0 mm 3 mps 747 mmHg 53%
    07:00 +21°C° 0 mm 4 mps 747 mmHg 52%
    08:00 +22°C° 0 mm 4 mps 747 mmHg 51%
    09:00 +23°C° 0 mm 5 mps 747 mmHg 51%
    10:00 +23°C° 0 mm 5 mps 747 mmHg 48%
    11:00 +25°C° 0 mm 5 mps 746 mmHg 46%
    12:00 +26°C° 0 mm 5 mps 746 mmHg 43%
    13:00 +26°C° 0 mm 6 mps 745 mmHg 45%
    14:00 +24°C° 0 mm 6 mps 744 mmHg 46%
    15:00 +24°C° 0 mm 6 mps 743 mmHg 48%
    16:00 +24°C° 0 mm 6 mps 743 mmHg 53%
    17:00 +23°C° 0 mm 6 mps 743 mmHg 58%
    18:00 +22°C° 0 mm 6 mps 743 mmHg 63%
    19:00 +21°C° 1.5 mm 7 mps 743 mmHg 65%
    20:00 +21°C° 1.5 mm 8 mps 743 mmHg 67%
    21:00 +21°C° 1.5 mm 10 mps 743 mmHg 69%
    22:00 +18°C° 2.3 mm 10 mps 743 mmHg 72%
    23:00 +16°C° 2.3 mm 10 mps 744 mmHg 75%

    28 October, Sunday

    Time Temperature Precipitation Wind Pressure Humidity
    00:00 +14°C° 2.3 mm 10 mps 744 mmHg 78%
    01:00 +15°C° 0.1 mm 8 mps 744 mmHg 72%
    02:00 +15°C° 0.1 mm 6 mps 744 mmHg 66%
    03:00 +15°C° 0.1 mm 4 mps 744 mmHg 60%
    04:00 +15°C° 0 mm 4 mps 744 mmHg 60%
    05:00 +15°C° 0 mm 4 mps 744 mmHg 59%
    06:00 +15°C° 0 mm 4 mps 744 mmHg 59%
    07:00 +14°C° 0.6 mm 5 mps 744 mmHg 60%
    08:00 +12°C° 0.6 mm 7 mps 744 mmHg 62%
    09:00 +11°C° 0.6 mm 9 mps 745 mmHg 64%
    10:00 +11°C° 0.7 mm 8 mps 745 mmHg 65%
    11:00 +11°C° 0.7 mm 7 mps 745 mmHg 65%
    12:00 +10°C° 0.7 mm 6 mps 746 mmHg 65%
    13:00 +10°C° 0.5 mm 5 mps 746 mmHg 65%
    14:00 +10°C° 0.5 mm 5 mps 746 mmHg 65%
    15:00 +11°C° 0.5 mm 4 mps 746 mmHg 65%
    16:00 +11°C° 0.4 mm 4 mps 747 mmHg 65%
    17:00 +10°C° 0.4 mm 5 mps 747 mmHg 66%
    18:00 +10°C° 0.4 mm 5 mps 747 mmHg 66%
    19:00 +10°C° 0.6 mm 5 mps 748 mmHg 63%
    20:00 +10°C° 0.6 mm 5 mps 748 mmHg 60%
    21:00 +10°C° 0.6 mm 5 mps 748 mmHg 57%
    22:00 +10°C° 0.5 mm 5 mps 748 mmHg 57%
    23:00 +10°C° 0.5 mm 6 mps 748 mmHg 57%

    29 October, Monday

    Time Temperature Precipitation Wind Pressure Humidity
    00:00 +10°C° 0.5 mm 6 mps 748 mmHg 56%
    01:00 +10°C° 0.4 mm 6 mps 747 mmHg 58%
    02:00 +10°C° 0.4 mm 7 mps 747 mmHg 59%
    03:00 +10°C° 0.4 mm 7 mps 747 mmHg 60%
    04:00 +10°C° 0.2 mm 7 mps 748 mmHg 57%
    05:00 +10°C° 0.2 mm 7 mps 748 mmHg 53%
    06:00 +10°C° 0.2 mm 6 mps 748 mmHg 49%
    07:00 +11°C° 0.1 mm 7 mps 748 mmHg 45%
    08:00 +12°C° 0.1 mm 7 mps 749 mmHg 41%
    09:00 +13°C° 0.1 mm 8 mps 749 mmHg 38%
    10:00 +13°C° 0.1 mm 8 mps 749 mmHg 38%
    11:00 +15°C° 0.1 mm 9 mps 749 mmHg 39%
    12:00 +14°C° 0.1 mm 10 mps 749 mmHg 40%
    13:00 +14°C° 0 mm 10 mps 749 mmHg 40%
    14:00 +14°C° 0 mm 10 mps 749 mmHg 41%
    15:00 +14°C° 0 mm 11 mps 749 mmHg 41%
    16:00 +14°C° 0 mm 10 mps 749 mmHg 45%
    17:00 +13°C° 0 mm 10 mps 750 mmHg 48%
    18:00 +13°C° 0 mm 9 mps 750 mmHg 52%
    19:00 +12°C° 0 mm 9 mps 750 mmHg 52%
    20:00 +12°C° 0 mm 8 mps 751 mmHg 53%
    21:00 +12°C° 0 mm 7 mps 751 mmHg 53%
    22:00 +12°C° 0 mm 7 mps 751 mmHg 53%
    23:00 +12°C° 0 mm 7 mps 751 mmHg 54%

    30 October, Tuesday

    Time Temperature Precipitation Wind Pressure Humidity
    00:00 +12°C° 0 mm 7 mps 751 mmHg 54%
    01:00 +11°C° 0 mm 7 mps 751 mmHg 54%
    02:00 +11°C° 0 mm 7 mps 750 mmHg 55%
    03:00 +11°C° 0 mm 7 mps 750 mmHg 56%
    04:00 +11°C° 0 mm 7 mps 750 mmHg 55%
    05:00 +11°C° 0 mm 7 mps 750 mmHg 55%
    06:00 +10°C° 0 mm 7 mps 750 mmHg 54%
    07:00 +11°C° 0 mm 7 mps 750 mmHg 49%
    08:00 +14°C° 0 mm 7 mps 750 mmHg 43%
    09:00 +15°C° 0 mm 7 mps 750 mmHg 38%
    10:00 +16°C° 0 mm 6 mps 749 mmHg 34%
    11:00 +17°C° 0 mm 6 mps 749 mmHg 31%
    12:00 +19°C° 0 mm 6 mps 748 mmHg 27%
    13:00 +19°C° 0 mm 6 mps 748 mmHg 27%
    14:00 +19°C° 0 mm 5 mps 747 mmHg 28%
    15:00 +20°C° 0 mm 5 mps 746 mmHg 28%
    16:00 +19°C° 0 mm 5 mps 746 mmHg 33%
    17:00 +18°C° 0 mm 4 mps 746 mmHg 38%
    18:00 +17°C° 0 mm 4 mps 746 mmHg 43%
    19:00 +15°C° 0 mm 4 mps 746 mmHg 45%
    20:00 +16°C° 0 mm 3 mps 747 mmHg 48%
    21:00 +14°C° 0 mm 3 mps 747 mmHg 50%
    22:00 +14°C° 0 mm 3 mps 746 mmHg 49%
    23:00 +14°C° 0 mm 3 mps 746 mmHg 48%
    Show more